Flag for Nicaragua Weather past 2 weeks in Managua, Nicaragua

Now
88 °F

Passing clouds.


Feels Like: 93 °F
Forecast: N/A
Wind: 16 mph from Southeast

Location: Managua A. C. Sandino

Current Time: Feb 27, 2015 at 5:18:17 PM

Latest Report: Feb 27, 2015 at 5:00 PM


Visibility: 6 mi

Pressure: 29.77 "Hg

Humidity: 55%

Dew point: 70 °F

Location of ManaguaLocation

Historic Weather in Managua — Graph

°F

Managua temperature yesterday

Maximum temperature yesterday: 93 °F (at 3:00 PM)
Minimum temperature yesterday: 72 °F (at 5:45 AM)
Average temperature yesterday: 84 °F

Past Weeks' High & Low Weather Summary

 TemperatureHumidityPressure
High95 °F (Feb 24, 3:00 PM)88% (Feb 17, 6:00 AM)29.98 "Hg (Feb 17, 6:00 AM)
Low70 °F (Feb 15, 3:00 AM)33% (Feb 14, 1:00 PM)29.74 "Hg (Feb 26, 3:00 PM)
Average83 °F58%29.88 "Hg
* Reported Feb 12 4:00 PM — Feb 27 4:00 PM, Managua, Weather by CustomWeather, © 2015

Note: Actual official high and low records may vary slightly from our data, if they occured in-between our weather recording intervals... More about our weather records

Advertising

Managua weather history for previous 24 hours

 ConditionsComfort  
Time TempWeatherWind HumidityBarometerVisibility
4:00 PM
Fri, Feb 27
91 °FPassing clouds.14 mph44%29.74 "HgN/A
3:00 PM93 °FScattered clouds.14 mph41%29.74 "HgN/A
2:00 PM93 °FScattered clouds.18 mph39%29.77 "HgN/A
1:00 PM93 °FScattered clouds.14 mph39%29.80 "HgN/A
12:00 PM91 °FScattered clouds.9 mph44%29.83 "HgN/A
11:00 AM88 °FScattered clouds.9 mph46%29.89 "HgN/A
10:00 AM86 °FPassing clouds.9 mph49%29.92 "HgN/A
9:00 AM84 °FPassing clouds.9 mph51%29.92 "HgN/A
8:00 AM79 °FPassing clouds.7 mph65%29.92 "HgN/A
7:00 AM75 °FPassing clouds.5 mph78%29.89 "HgN/A
6:00 AM70 °FPassing clouds.No wind88%29.86 "HgN/A
5:00 AM72 °FPassing clouds.No wind83%29.86 "HgN/A
4:00 AM72 °FPassing clouds.5 mph83%29.83 "HgN/A
3:00 AM73 °FPassing clouds.No wind78%29.83 "HgN/A
2:00 AM73 °FPassing clouds.No wind78%29.83 "HgN/A
12:00 AM77 °FClear.5 mph79%29.86 "Hg10 mi
11:00 PM
Thu, Feb 26
79 °FClear.No wind70%29.86 "Hg10 mi
10:00 PM79 °FClear.No wind70%29.83 "Hg10 mi
9:00 PM81 °FPassing clouds.7 mph62%29.83 "HgN/A
8:00 PM82 °FPassing clouds.7 mph58%29.80 "HgN/A
7:00 PM84 °FPassing clouds.5 mph55%29.77 "HgN/A
6:00 PM88 °FPassing clouds.9 mph46%29.77 "HgN/A
5:00 PM91 °FPassing clouds.14 mph41%29.74 "HgN/A
Weather by CustomWeather, © 2015

See weather overviewHow to use our weather pages